Theta_e
308 308 309 309 309 309 310 310 310 310 311 313 314 316 316 314 314 315 317 318 320 318 316 317 320 320 321 319 318 319 315 317 321 322 322 333 332 334 335 344 347 345 343 345 347
308 308 309 309 309 310 310 310 310 311 313 315 315 316 315 316 320 321 321 322 321 317 317 319 320 322 321 318 318 316 315 320 319 319 320 332 332 333 333 339 343 345 344 345 347
310 310 310 310 310 310 310 310 311 312 314 315 316 316 315 317 320 320 319 317 317 317 319 320 320 321 320 319 317 316 317 318 319 321 320 330 332 334 331 333 340 345 344 345 348
310 310 310 310 311 311 311 311 311 313 315 315 315 316 315 317 320 321 321 317 319 319 319 319 320 321 317 317 318 317 317 318 320 319 322 330 334 330 332 335 339 338 343 345 347
310 310 310 310 310 311 311 311 312 314 316 315 315 315 316 316 320 320 319 317 319 319 319 319 319 319 317 317 318 318 318 320 319 318 323 331 333 330 333 333 333 334 342 343 347
309 310 310 310 310 310 311 311 313 315 316 316 315 315 315 316 321 319 318 318 319 319 318 319 319 319 319 317 317 318 317 317 319 319 326 328 324 330 333 335 337 339 343 342 347
310 310 310 314 316 315 313 312 313 315 316 316 315 315 316 320 321 320 319 319 319 318 319 319 319 318 318 316 318 317 317 315 318 320 320 326 322 322 329 338 341 344 343 342 347
311 315 316 317 317 317 315 313 312 314 315 315 315 314 319 321 322 321 319 319 319 319 319 319 319 318 318 318 316 315 313 316 316 316 319 323 324 320 327 340 343 344 342 344 347
316 316 317 317 318 319 320 321 316 312 313 314 314 315 320 322 321 319 319 319 319 319 319 319 319 318 317 314 313 311 316 316 315 315 315 317 318 315 324 336 337 341 346 346 346
316 317 317 318 319 320 321 322 323 320 313 314 316 317 321 322 322 320 319 319 319 319 320 320 318 312 309 311 314 316 316 315 315 315 313 314 321 319 320 330 325 328 332 336 339
316 315 317 318 320 322 323 323 322 322 322 322 322 321 322 323 322 321 320 319 319 319 316 317 315 316 316 314 315 316 316 316 316 317 318 321 323 323 324 324 319 328 329 330 331
316 316 317 318 321 323 322 323 322 322 322 324 324 322 322 322 322 322 321 320 319 318 317 316 319 317 315 314 316 316 319 319 318 318 322 322 322 321 323 325 326 323 329 329 330
312 316 316 319 323 323 323 323 323 323 322 323 323 323 322 322 321 321 321 320 319 319 318 319 321 318 319 318 319 319 320 320 320 318 317 318 320 321 322 326 328 326 325 330 330
312 315 316 320 322 323 323 323 322 324 321 325 326 325 323 322 321 322 321 321 321 321 318 319 320 320 319 321 319 321 320 320 320 320 321 317 317 319 319 325 328 330 331 331 330
312 313 316 317 323 324 323 323 322 325 326 327 325 322 322 321 322 321 321 322 321 321 320 322 321 320 320 321 320 321 319 321 321 318 318 318 318 318 321 325 328 329 331 331 331
312 313 314 316 323 323 322 321 323 325 332 327 321 320 320 320 321 322 322 322 322 320 321 322 323 321 322 321 320 319 320 317 315 315 320 320 321 320 322 324 329 330 330 331 330
312 313 313 316 322 322 321 324 318 329 325 323 321 320 319 320 320 320 321 322 320 322 322 322 323 321 322 321 319 317 316 319 321 320 321 320 324 322 322 323 328 329 330 331 331
312 313 314 317 323 324 322 317 326 325 326 324 321 321 322 324 322 321 321 322 322 320 320 323 324 322 322 322 322 320 316 318 324 322 320 320 325 321 324 328 329 329 327 326 327
311 322 318 320 323 324 321 316 316 325 325 323 322 323 323 324 324 324 324 324 322 321 323 322 324 321 323 324 320 321 319 316 317 318 320 320 324 320 322 322 324 316 317 316 316
311 322 321 325 327 324 314 316 322 324 323 322 324 324 324 324 324 325 325 324 323 322 320 321 322 321 323 323 321 322 318 322 318 325 325 321 325 323 321 316 314 311 311 312 312
311 320 320 324 326 323 320 317 319 322 323 322 322 323 324 325 324 326 326 324 323 323 321 320 319 320 321 322 323 320 321 320 318 319 323 324 322 319 317 312 311 310 312 311 311
311 314 320 320 319 314 316 318 321 323 322 323 322 323 324 323 324 325 325 324 323 323 323 320 318 321 322 320 320 321 322 319 321 323 319 318 319 312 312 311 311 311 312 311 310
312 318 319 320 315 314 316 319 318 318 320 320 321 320 321 321 322 323 324 323 323 321 322 318 316 317 320 315 316 323 322 321 318 315 320 320 320 313 311 311 311 311 311 311 313
314 314 319 317 316 315 314 315 315 318 320 320 321 320 320 322 319 323 324 322 320 321 320 317 314 316 321 319 317 324 323 321 320 319 320 318 319 315 314 312 311 311 311 313 310
316 317 317 313 315 313 313 314 316 317 319 320 320 321 321 323 322 322 322 322 321 322 321 316 320 319 319 319 322 323 320 320 320 317 319 319 320 317 314 314 314 313 312 311 313
317 318 318 316 315 313 313 316 318 318 317 319 321 321 320 321 321 322 321 320 323 321 320 315 321 323 323 322 321 322 318 319 317 318 316 316 317 314 314 314 313 313 313 313 310
313 317 317 314 315 315 316 318 318 316 318 319 319 321 321 322 322 321 321 321 320 319 317 317 317 317 320 319 319 318 319 317 317 317 316 317 315 315 315 315 314 313 312 310 309
Wind_Speed
3 2 2 2 2 1 1 2 3 3 4 5 8 11 12 13 10 9 4 3 3 5 4 5 5 6 5 1 2 3 4 1 3 2 4 11 6 10 19 11 13 14 8 16 29
2 1 1 0 0 1 1 2 3 3 4 6 9 11 13 12 8 6 4 5 6 4 4 6 8 10 2 2 2 4 4 5 5 5 3 15 13 17 8 16 7 17 8 22 30
4 3 2 2 1 1 2 2 2 2 3 6 9 11 12 10 4 6 5 5 1 5 6 9 9 7 3 1 2 2 4 4 9 18 11 6 11 14 12 6 17 33 21 33 34
4 3 3 2 2 2 2 2 2 2 3 6 9 11 11 6 2 5 7 4 6 7 8 10 11 4 3 3 2 1 7 7 12 11 7 9 15 9 24 17 29 26 26 38 38
3 3 3 3 3 3 3 3 2 2 3 6 9 11 10 6 2 7 3 1 4 8 10 12 9 4 3 4 5 0 5 13 20 9 4 11 16 8 25 18 15 27 30 38 40
3 3 4 4 4 4 4 3 3 2 3 6 8 10 9 3 2 4 3 3 6 9 13 13 8 7 0 2 2 6 11 17 8 4 4 4 2 9 23 20 17 30 34 40 43
4 4 5 6 6 5 5 4 3 4 4 6 8 11 10 4 2 5 6 5 7 11 15 12 10 6 9 6 6 6 7 8 4 6 0 10 2 10 9 24 27 30 36 41 43
7 6 6 6 6 6 5 4 4 5 5 7 8 11 6 5 7 6 2 3 8 10 12 9 7 4 1 5 5 4 5 5 7 9 0 5 10 13 9 30 31 33 37 41 39
6 5 6 6 6 6 7 7 5 4 5 6 8 7 4 8 9 3 1 3 8 7 8 8 7 2 2 4 5 7 1 3 10 9 4 4 5 10 6 23 27 31 35 33 34
7 6 6 5 6 8 12 7 2 2 3 4 6 5 2 12 10 6 3 5 5 6 4 2 3 3 4 4 1 3 3 5 4 5 9 6 8 8 8 11 4 11 19 19 28
10 7 5 4 6 10 14 4 5 2 8 8 10 11 13 9 10 3 5 1 5 4 2 4 5 3 7 5 4 2 1 2 4 5 6 4 6 11 16 16 8 12 12 17 23
13 8 5 2 5 9 11 8 10 6 8 11 14 16 13 10 5 2 1 3 1 2 3 6 4 5 4 4 4 3 3 4 4 5 6 2 7 5 15 12 10 3 21 25 25
14 10 5 2 4 7 10 14 11 9 2 6 3 5 4 1 3 4 3 1 0 4 3 4 4 2 5 4 6 2 3 2 4 4 5 3 4 6 5 17 19 12 13 18 24
15 10 4 2 1 4 7 12 10 8 4 5 2 1 5 2 3 2 4 1 2 2 3 2 5 3 6 3 3 2 2 2 3 3 2 3 4 5 7 9 14 15 13 14 18
15 11 5 3 1 4 9 11 10 4 4 3 1 1 4 4 2 3 2 1 2 2 5 4 6 5 6 3 0 3 3 2 2 2 3 7 4 5 4 5 5 7 12 14 15
13 11 7 3 1 6 11 13 3 5 1 4 1 1 3 1 2 2 2 3 3 4 4 2 4 4 1 1 3 3 1 5 4 2 2 3 4 4 2 1 2 4 9 15 18
13 10 7 2 2 7 10 4 5 3 3 5 2 1 3 1 3 0 4 6 3 3 4 5 3 5 3 5 5 9 7 4 5 5 4 4 2 6 4 4 4 9 12 14 16
12 8 5 1 3 6 8 5 2 2 4 5 4 2 4 4 3 3 3 3 5 4 3 1 5 4 6 2 4 3 6 5 5 3 5 3 4 4 3 10 14 15 13 12 13
11 4 4 3 2 4 3 4 6 2 4 6 4 6 6 5 3 4 4 2 3 2 4 2 4 5 3 3 1 2 2 1 5 3 2 3 2 2 5 7 12 12 13 14 18
11 6 10 3 3 4 5 3 3 3 4 2 2 1 4 6 4 4 3 2 2 4 2 2 2 2 6 5 5 3 2 3 4 1 4 4 4 5 5 5 6 11 18 21 20
10 3 10 2 3 2 3 4 4 7 7 1 2 2 1 1 2 2 1 1 1 3 9 2 3 6 3 4 2 5 5 4 3 3 3 3 5 3 6 6 9 14 20 19 15
8 3 10 3 2 3 2 2 6 7 7 3 3 3 2 2 3 2 3 3 5 2 3 1 4 2 5 3 3 2 3 4 4 5 1 2 6 5 6 15 20 20 19 12 8
11 6 12 1 2 3 4 3 3 7 5 6 3 3 3 3 3 4 3 4 5 3 3 3 2 3 8 6 5 4 2 3 3 3 4 2 5 4 10 13 11 17 13 7 2
8 4 7 12 10 2 5 4 5 7 5 5 4 4 5 5 6 2 4 5 4 5 6 3 3 6 5 7 3 4 5 3 4 2 3 6 4 1 6 6 10 8 7 1 3
8 4 4 3 6 6 1 3 5 6 8 10 5 5 2 3 3 3 4 5 4 4 3 4 2 3 4 5 2 4 5 5 2 3 3 6 1 3 4 6 8 6 3 3 7
5 4 5 6 5 4 7 5 5 6 6 5 5 4 3 4 2 2 2 2 2 3 2 3 1 1 3 2 5 1 6 3 4 3 3 5 5 1 7 8 7 10 13 7 3
5 4 3 6 5 3 3 4 5 6 6 9 2 3 6 3 1 2 3 5 5 4 3 2 5 3 4 3 3 3 4 4 3 6 2 4 3 1 2 3 3 6 6 2 7
Wind_Direction
325 310 287 280 275 276 298 320 327 339 356 7 2 352 343 339 334 337 24 44 6 331 15 40 20 337 321 170 149 120 65 216 249 201 156 178 179 188 210 171 176 190 179 187 165
12 26 37 2 325 311 313 317 322 336 2 8 1 351 344 345 354 40 5 337 330 347 42 17 3 5 108 102 149 93 99 227 208 203 176 180 185 160 160 179 190 181 184 177 173
61 68 68 53 21 348 331 321 318 334 5 4 358 347 345 353 43 44 13 353 21 61 35 9 360 357 61 45 165 145 175 214 254 252 254 189 160 163 149 206 196 189 183 178 179
59 62 60 48 28 5 347 332 317 329 2 358 350 346 347 358 114 350 356 41 78 55 23 10 2 41 71 61 342 337 250 238 295 316 176 171 167 188 181 193 200 205 193 183 187
39 34 33 26 18 9 357 338 316 312 344 345 342 345 357 338 355 351 350 131 53 25 6 6 12 32 39 325 345 193 311 306 309 320 247 171 183 190 205 198 205 205 196 192 192
29 27 27 23 16 10 357 333 304 290 315 326 334 339 341 312 344 342 48 38 10 0 349 351 352 345 54 311 125 317 298 305 332 64 137 146 231 186 226 212 207 193 194 197 199
37 38 40 35 24 11 355 330 300 279 291 310 323 327 305 239 200 303 319 339 357 350 345 342 345 349 328 341 339 319 341 348 331 337 4 148 347 240 211 193 190 193 196 199 202
56 54 37 24 19 18 11 347 303 277 280 297 311 320 276 283 292 298 306 357 4 345 345 343 339 332 313 304 357 35 52 21 296 2 342 152 241 252 209 185 188 196 197 199 201
42 32 20 17 25 20 6 347 309 276 273 288 304 319 297 351 356 358 131 11 349 333 329 315 311 327 5 58 9 11 350 323 328 17 320 45 297 326 197 186 184 191 197 198 202
11 2 2 5 6 9 356 359 348 302 285 293 287 312 322 334 351 311 286 265 301 318 302 349 17 56 39 69 247 299 339 312 247 338 34 29 348 330 62 133 129 185 194 195 204
6 351 350 351 1 11 22 32 1 342 306 262 273 281 297 319 313 321 298 278 288 314 16 4 54 288 275 188 172 194 144 290 283 348 79 4 41 15 20 52 78 190 190 189 198
7 352 344 342 358 22 36 52 18 307 307 289 269 264 273 292 307 328 225 181 54 352 342 23 5 285 245 136 103 93 74 333 299 8 90 337 38 341 35 23 356 202 183 200 199
8 357 336 328 17 39 40 23 359 335 257 294 278 251 255 235 257 310 188 108 103 32 24 113 277 7 80 66 77 41 122 276 239 3 38 3 348 357 10 28 34 46 195 186 182
2 360 327 309 64 16 21 356 347 340 58 288 286 172 189 207 292 307 177 239 36 48 146 271 352 34 51 87 128 12 261 322 304 52 274 19 267 335 354 8 26 56 105 142 160
353 357 334 261 40 7 343 332 331 334 51 280 258 187 180 165 317 35 119 267 50 21 83 288 0 42 55 350 327 236 47 52 9 91 56 345 80 263 1 9 1 19 115 141 166
348 345 342 278 190 349 334 329 298 42 295 349 270 104 81 343 314 15 120 58 49 86 10 43 336 56 295 10 26 18 52 45 54 92 43 288 114 284 302 195 167 78 116 132 146
342 337 338 289 196 347 330 321 41 114 327 327 329 43 118 295 311 66 53 22 55 27 355 347 355 322 28 28 9 41 44 338 348 2 230 310 55 243 294 13 152 138 127 124 128
342 335 335 210 161 358 349 52 105 304 300 314 21 66 84 356 11 43 63 62 26 73 71 75 328 18 340 131 235 284 147 163 248 219 263 330 249 255 57 97 120 122 114 113 119
350 24 79 150 161 359 348 71 200 199 316 325 340 51 357 6 77 68 55 100 34 15 119 54 306 318 47 316 45 335 254 177 110 29 39 260 294 353 89 83 107 103 116 109 113
355 98 46 187 229 356 67 228 239 227 348 348 98 61 57 342 56 60 18 272 118 49 156 164 344 339 305 16 34 65 164 360 10 252 270 291 279 232 182 163 119 108 117 124 119
356 123 6 70 164 28 132 238 279 297 304 172 169 95 69 58 70 86 219 355 37 36 62 89 98 293 5 35 339 358 11 29 115 122 199 290 265 216 225 169 141 126 134 128 123
7 52 359 135 61 44 134 216 323 331 359 13 92 102 110 40 58 76 99 53 1 28 56 357 131 287 266 300 232 68 118 112 106 297 213 179 267 336 161 146 142 143 145 136 116
355 332 14 85 98 344 319 315 326 351 352 356 54 52 43 69 82 43 69 19 34 70 140 181 26 17 348 355 3 51 354 125 117 87 227 167 277 47 95 106 125 138 137 130 59
1 8 13 60 49 67 8 348 338 1 33 35 31 61 72 47 24 93 32 4 30 78 66 96 119 151 190 229 207 305 317 344 141 154 240 234 249 135 53 79 111 134 135 65 325
17 35 12 354 347 15 15 346 342 359 6 29 30 36 100 100 59 58 8 360 42 24 59 97 188 191 259 262 271 259 338 330 102 285 188 322 70 105 131 130 147 171 183 209 294
24 13 357 357 336 10 5 9 3 329 11 353 86 24 53 94 98 140 50 38 292 352 54 10 231 165 278 15 14 38 7 71 38 5 66 33 44 97 118 135 153 184 222 244 277
19 24 359 359 356 61 335 307 334 327 44 51 39 53 49 49 351 324 248 251 235 199 211 159 140 107 262 350 337 13 16 72 77 31 30 49 328 338 132 157 244 276 254 291 342